| time (UTC) | temp F | wind direction | speed MPH | gust MPH | rain 1hr in | rain 24hr in | rain mn in | humidity % | barometer mb |
| 20260502194544 | 64 | 178 | 2.0 | 7.0 | 0.00 | 0.00 | 0.00 | 72 | 1017.4 |
| 20260502193041 | 65 | 178 | 3.0 | 11.0 | 0.00 | 0.00 | 0.00 | 72 | 1017.1 |
| 20260502191556 | 65 | 178 | 4.0 | 10.0 | 0.00 | 0.00 | 0.00 | 72 | 1017.1 |
| 20260502190047 | 66 | 177 | 5.0 | 11.0 | 0.00 | 0.00 | 0.00 | 71 | 1017.2 |
| 20260502184545 | 67 | 178 | 7.0 | 12.0 | 0.00 | 0.00 | 0.00 | 71 | 1017.1 |
| 20260502183044 | 68 | 176 | 7.0 | 12.0 | 0.00 | 0.00 | 0.00 | 71 | 1017.1 |
| 20260502181603 | 68 | 176 | 7.0 | 12.0 | 0.00 | 0.00 | 0.00 | 71 | 1017.2 |
| 20260502163050 | 70 | 163 | 9.0 | 15.0 | 0.00 | 0.00 | 0.00 | 71 | 1017.5 |
| 20260502161549 | 71 | 158 | 8.0 | 15.0 | 0.00 | 0.00 | 0.00 | 71 | 1017.3 |
| 20260502151600 | 70 | 145 | 8.0 | 12.0 | 0.00 | 0.00 | 0.00 | 72 | 1018.0 |
| 20260502123045 | 69 | 138 | 6.0 | 8.0 | 0.00 | 0.00 | 0.00 | 73 | 1019.4 |
| 20260502121544 | 68 | 138 | 3.0 | 6.0 | 0.00 | 0.00 | 0.00 | 73 | 1019.5 |
| 20260502114550 | 67 | 162 | 4.0 | 8.0 | 0.00 | 0.00 | 0.00 | 73 | 1019.8 |
| 20260502113043 | 67 | 162 | 3.0 | 9.0 | 0.00 | 0.00 | 0.00 | 73 | 1019.8 |
| 20260502111544 | 68 | 163 | 8.0 | 12.0 | 0.00 | 0.00 | 0.00 | 74 | 1020.0 |
| 20260502110046 | 68 | 162 | 6.0 | 9.0 | 0.00 | 0.00 | 0.00 | 74 | 1020.1 |
| 20260502104551 | 68 | 163 | 1.0 | 7.0 | 0.00 | 0.00 | 0.00 | 74 | 1020.3 |
| 20260502103047 | 66 | 162 | 2.0 | 7.0 | 0.00 | 0.00 | 0.00 | 74 | 1020.3 |
| 20260502101549 | 66 | 162 | 2.0 | 5.0 | 0.00 | 0.00 | 0.00 | 74 | 1020.4 |
| 20260502070044 | 60 | 0 | 0.0 | 0.0 | 0.00 | 0.00 | 0.00 | 73 | 1019.8 |
| 20260502064558 | 59 | 0 | 0.0 | 0.0 | 0.00 | 0.00 | 0.00 | 72 | 1019.7 |
| 20260502063045 | 60 | 0 | 0.0 | 0.0 | 0.00 | 0.00 | 0.00 | 72 | 1019.6 |
| 20260502061547 | 60 | 0 | 0.0 | 0.0 | 0.00 | 0.00 | 0.00 | 72 | 1019.3 |
| 20260502060048 | 60 | 0 | 0.0 | 1.0 | 0.00 | 0.00 | 0.00 | 72 | 1019.5 |
| 20260502054558 | 60 | 0 | 0.0 | 0.0 | 0.00 | 0.00 | 0.00 | 72 | 1019.5 |
| 20260502053046 | 60 | 0 | 0.0 | 0.0 | 0.00 | 0.00 | 0.00 | 72 | 1019.4 |
| 20260502051544 | 61 | 0 | 0.0 | 0.0 | 0.00 | 0.00 | 0.00 | 72 | 1019.1 |
| 20260502050051 | 61 | 0 | 0.0 | 0.0 | 0.00 | 0.00 | 0.00 | 72 | 1019.2 |
| 20260502044550 | 61 | 0 | 0.0 | 0.0 | 0.00 | 0.00 | 0.00 | 72 | 1019.4 |
| 20260502043050 | 61 | 0 | 0.0 | 0.0 | 0.00 | 0.00 | 0.00 | 72 | 1019.4 |
| 20260502041546 | 60 | 0 | 0.0 | 0.0 | 0.00 | 0.00 | 0.00 | 72 | 1019.3 |
| 20260502040054 | 61 | 0 | 0.0 | 0.0 | 0.00 | 0.00 | 0.00 | 72 | 1019.4 |
| 20260502034544 | 61 | 0 | 0.0 | 0.0 | 0.00 | 0.00 | 0.00 | 72 | 1019.2 |
| 20260502033048 | 61 | 0 | 0.0 | 0.0 | 0.00 | 0.00 | 0.00 | 71 | 1019.4 |
| 20260502031555 | 61 | 0 | 0.0 | 0.0 | 0.00 | 0.00 | 0.00 | 71 | 1019.4 |
| 20260502030043 | 61 | 0 | 0.0 | 0.0 | 0.00 | 0.00 | 0.00 | 71 | 1019.4 |
| 20260502024545 | 61 | 0 | 0.0 | 0.0 | 0.00 | 0.00 | 0.00 | 71 | 1019.5 |
| 20260502023049 | 61 | 0 | 0.0 | 0.0 | 0.00 | 0.00 | 0.00 | 71 | 1019.5 |
| 20260502021544 | 61 | 0 | 0.0 | 0.0 | 0.00 | 0.00 | 0.00 | 71 | 1019.5 |
| 20260502020108 | 61 | 0 | 0.0 | 0.0 | 0.00 | 0.00 | 0.00 | 71 | 1019.8 |
| 20260502014551 | 61 | 0 | 0.0 | 0.0 | 0.00 | 0.00 | 0.00 | 71 | 1019.9 |
| 20260502013044 | 61 | 0 | 0.0 | 0.0 | 0.00 | 0.00 | 0.00 | 71 | 1019.8 |
| 20260502011551 | 61 | 0 | 0.0 | 0.0 | 0.00 | 0.00 | 0.00 | 71 | 1020.0 |
| 20260502010044 | 61 | 162 | 1.0 | 2.0 | 0.00 | 0.00 | 0.00 | 71 | 1020.0 |
| 20260502004547 | 62 | 0 | 0.0 | 0.0 | 0.00 | 0.00 | 0.00 | 71 | 1020.0 |
| 20260502003049 | 62 | 0 | 0.0 | 0.0 | 0.00 | 0.00 | 0.00 | 71 | 1020.4 |
| 20260502001622 | 62 | 0 | 0.0 | 0.0 | 0.00 | 0.00 | 0.00 | 71 | 1020.4 |
| 20260502000044 | 62 | 0 | 0.0 | 0.0 | 0.00 | 0.00 | 0.00 | 71 | 1020.5 |
| 20260501234545 | 62 | 0 | 0.0 | 0.0 | 0.00 | 0.00 | 0.00 | 71 | 1020.6 |
| 20260501233050 | 62 | 0 | 0.0 | 0.0 | 0.00 | 0.00 | 0.00 | 71 | 1020.8 |
| 20260501231547 | 62 | 0 | 0.0 | 2.0 | 0.00 | 0.00 | 0.00 | 71 | 1020.8 |
| 20260501230045 | 62 | 163 | 1.0 | 2.0 | 0.00 | 0.00 | 0.00 | 70 | 1020.8 |
| 20260501224556 | 62 | 0 | 0.0 | 2.0 | 0.00 | 0.00 | 0.00 | 70 | 1021.0 |
| 20260501223044 | 62 | 163 | 1.0 | 4.0 | 0.00 | 0.00 | 0.00 | 70 | 1021.0 |
| 20260501221551 | 62 | 163 | 2.0 | 4.0 | 0.00 | 0.00 | 0.00 | 70 | 1021.1 |
| 20260501220051 | 62 | 163 | 1.0 | 2.0 | 0.00 | 0.00 | 0.00 | 70 | 1021.1 |
| 20260501214546 | 62 | 163 | 1.0 | 4.0 | 0.00 | 0.00 | 0.00 | 69 | 1021.2 |
| 20260501213050 | 62 | 0 | 0.0 | 1.0 | 0.00 | 0.00 | 0.00 | 69 | 1020.9 |
| 20260501211547 | 62 | 163 | 0.0 | 2.0 | 0.00 | 0.00 | 0.00 | 69 | 1020.8 |
| 20260501210054 | 63 | 163 | 0.0 | 5.0 | 0.00 | 0.00 | 0.00 | 69 | 1020.8 |
| 20260501204545 | 63 | 163 | 1.0 | 3.0 | 0.00 | 0.00 | 0.00 | 68 | 1020.7 |
| 20260501203047 | 64 | 163 | 2.0 | 4.0 | 0.00 | 0.00 | 0.00 | 68 | 1020.4 |
| 20260501201545 | 64 | 163 | 1.0 | 4.0 | 0.00 | 0.00 | 0.00 | 68 | 1020.2 |
| 20260501200045 | 65 | 163 | 2.0 | 5.0 | 0.00 | 0.00 | 0.00 | 68 | 1020.0 |